Regional Weather Roundup
Issued by NWS

Home | Current Version | Previous Version | Graphics & Text | Print | Product List | Glossary On
Versions: 1 2 3 4 5 6 7 8 9 10 11 12 13 14 15 16 17 18 19 20 21 22 23 24 25 26 27 28 29 30 31 32 33 34 35 36 37 38 39 40 41 42 43 44 45 46 47 48 49 50
000
ASUS45 KABQ 270110
RWRNM
WEATHER ROUNDUP FOR NEW MEXICO
NATIONAL WEATHER SERVICE ALBUQUERQUE NM
700 PM MDT TUE AUG 26 2014

NOTE: "FAIR" MEANS FEW OR NO CLOUDS BELOW 12,000 FEET AGL WITH NO
       SIGNIFICANT WEATHER OR OBSTRUCTIONS TO VISION.

      THIS PRODUCT IS RELEASED AS TWO VERSIONS.  ONE VERSION NEAR
      THE TOP OF THE HOUR CONTAINING PRELIMINARY DATA FROM ALBUQUERQUE
      AND OTHER STATIONS.  A FINAL VERSION WITH ADDITIONAL DATA IS
      ISSUED ABOUT 10 MINUTES AFTER THE HOUR.

NMZ501-503-504-510>518-270200-
NORTHWEST PLATEAU/NORTHCENTRAL MOUNTAINS

CITY           SKY/WX    TMP DP  RH WIND       PRES   REMARKS
FARMINGTON     RAIN      64  55  72 W21G26    30.21R
LOS ALAMOS     LGT RAIN  56  56 100 CALM      30.35F
SANTA FE       CLOUDY    60  57  89 N8        30.28F
TAOS           CLOUDY    57  52  82 SE8       30.35F
ANGEL FIRE     LGT RAIN  54  49  83 CALM      30.43R

$$
NMZ402-403-502-505>509-270200-
WESTCENTRAL MOUNTAINS/SOUTHWEST MOUNTAINS

CITY           SKY/WX    TMP DP  RH WIND       PRES   REMARKS
GALLUP         MOCLDY    68  47  46 NW18      30.25S
SILVER CITY    CLOUDY    75  55  50 SW6       30.20R

$$
NMZ407-409-411-412-270200-
SOUTHERN DESERTS

CITY           SKY/WX    TMP DP  RH WIND       PRES   REMARKS
LORDSBURG      MOCLDY    70  61  73 W6        30.11F
DEMING         CLOUDY    80  57  45 W12       30.10R
LAS CRUCES     MOCLDY    84  51  31 CALM      30.11S
HOLLOMAN AFB   CLOUDY    81  62  53 W10       30.10R
ALAMOGORDO     LGT RAIN  79  63  57 W7        30.11R
T OR C         MOCLDY    81  54  39 W9        30.13R

$$
NMZ519>523-270200-
CENTRAL VALLEYS/CENTRAL HIGHLANDS

CITY           SKY/WX    TMP DP  RH WIND       PRES   REMARKS
ALBUQUERQUE    MOCLDY    75  53  46 S7        30.19F
DOUBLE EAGLE   MOCLDY    72  54  53 N7        30.22F
MORIARTY ARPT  MOCLDY    65  57  73 SE6       30.29R
CLINES CORNERS MOCLDY    62  54  74 S3        30.31R
BELEN          FAIR      67  58  73 SE6       30.19R
SOCORRO        FAIR      73  61  66 N5        30.17R

$$
NMZ524>526-539-540-270200-
SOUTHCENTRAL MOUNTAINS

CITY           SKY/WX    TMP DP  RH WIND       PRES   REMARKS
RUIDOSO        CLOUDY    61  55  82 SE5       30.35R

$$
NMZ527>531-270200-
NORTHEAST HIGHLANDS/NORTHEAST PLAINS

CITY           SKY/WX    TMP DP  RH WIND       PRES   REMARKS
LAS VEGAS      CLOUDY    63  58  83 CALM      30.31R
RATON          CLOUDY    69  55  60 CALM      30.24S
CLAYTON        HVY RAIN  64  60  87 NW12      30.22R VSB 3/4

$$
NMZ532>537-270200-
EASTCENTRAL PLAINS

CITY           SKY/WX    TMP DP  RH WIND       PRES   REMARKS
TUCUMCARI      RAIN      73  58  59 SW18      30.15R
CANNON AFB     MOCLDY    79  58  48 S7        30.14R
CLOVIS AIRPORT   N/A     81  52  36 S9        30.16R

$$
NMZ028-029-538-270200-
SOUTHEAST PLAINS

CITY           SKY/WX    TMP DP  RH WIND       PRES   REMARKS
ROSWELL        LGT RAIN  71  65  81 W10       30.11S
CARLSBAD       CLOUDY    79  64  60 NW18      30.06R
HOBBS          MOCLDY    84  57  39 S5        30.09R


$$


USA.gov is the U.S. government's official web portal to all federal, state and local government web resources and services.